{"data":{"norad_id":66215,"epoch":"2026-09-20T14:15:38.569824Z","epoch_age_seconds":88553,"freshness":"FRESH","line1":"1 66215U 25244K   26263.59419641  .00027819  00000+0  83157-3 0  9998","line2":"2 66215  53.1608  41.5244 0001336  93.3819 266.7336 15.34395077 51543","mean_motion":15.34395077,"eccentricity":0.0001336,"inclination_deg":53.1608,"raan_deg":41.5244,"arg_perigee_deg":93.3819,"mean_anomaly_deg":266.7336,"bstar":0.00083157,"rev_number":5154,"period_min":93.848059185346,"perigee_km":461.80393422874,"apogee_km":463.63181065066,"semimajor_km":6840.8548724397,"source":"CELESTRAK","updated_at":"2026-09-21T09:00:35.841439Z"}}